Pamplona, Spain

5:12 PM CEST on September 21, 2017 (GMT +0200)
Pamplona

Weather History for LEPP - December, 2012

Change the Weather History Date:

Monday, December 24, 2012

  Actual Average Record
Temperature  
Mean Temperature 50 °F -  
Max Temperature 62 °F 46 °F 62 °F (2012)
Min Temperature 37 °F 35 °F 17 °F (2005)
Degree Days  
Heating Degree Days 16    
Moisture  
Dew Point 39 °F    
Average Humidity 66    
Maximum Humidity 100    
Minimum Humidity 34    
Precipitation  
Precipitation 0.00 in - - ()
Sea Level Pressure  
Sea Level Pressure 29.96 in    
Wind  
Wind Speed 5 mph ()    
Max Wind Speed 23 mph    
Max Gust Speed 34 mph    
Visibility 3.8 miles    
Events      
Averages and records for this station are not official NWS values.
T = Trace of Precipitation, MM = Missing Value Source: Averaged Metar Reports

Daily Weather History Graph

Daily Weather History Graph

Search for Another Location

Airport or City:

Trip Planner

Search our weather history database for the weather conditions in past years. The results will help you decide how hot, cold, wet, or windy it might be!

Date:

Astronomy

Dec. 24, 2012 Rise Set
Actual Time 8:35 AM CET 5:37 PM CET
Civil Twilight 8:02 AM CET 6:09 PM CET
Nautical Twilight 7:27 AM CET 6:45 PM CET
Astronomical Twilight 6:52 AM CET 7:19 PM CET
Moon 2:57 PM CET (12/24) 4:58 AM CET (12/24)
Length of Visible Light 10h 06m
Length of Day
9h 02m
Waxing Gibbous, 86% of the Moon is Illuminated
Dec 24
Waxing Gibbous
Dec 28
Full
Jan 5
Last Quarter
Jan 11
New
Jan 19
First Quarter

Hourly Weather History & Observations

Time (CET) Temp. Windchill Dew Point Humidity Pressure Visibility Wind Dir Wind Speed Gust Speed Precip Events Conditions
12:00 AM 39.2 °F 35.9 °F 39.2 °F 100% 30.12 in 2.5 mi SE 4.6 mph - N/A   Mist
5:30 AM 39.2 °F - 39.2 °F 100% 30.04 in 2.2 mi Calm Calm - N/A   Mist
6:00 AM 39.2 °F - 39.2 °F 100% 30.04 in 2.2 mi Variable 1.2 mph - N/A   Mist
6:30 AM 39.2 °F - 39.2 °F 100% 30.01 in 2.2 mi Calm Calm - N/A   Mist
7:00 AM 39.2 °F - 39.2 °F 100% 30.01 in 3.1 mi Variable 1.2 mph - N/A   Mist
7:30 AM 37.4 °F - 37.4 °F 100% 30.01 in 3.1 mi Calm Calm - N/A   Mist
8:00 AM 37.4 °F - 37.4 °F 100% 30.01 in 4.3 mi Variable 1.2 mph - N/A   Unknown
8:30 AM 37.4 °F - 37.4 °F 100% 30.04 in 5.6 mi Calm Calm - N/A   Unknown
9:00 AM 39.2 °F - 39.2 °F 100% 30.01 in 5.6 mi Variable 1.2 mph - N/A   Unknown
9:30 AM 39.2 °F 35.0 °F 39.2 °F 100% 30.04 in 5.6 mi North 5.8 mph - N/A   Unknown
10:00 AM 42.8 °F 40.1 °F 41.0 °F 93% 30.04 in 5.6 mi NNW 4.6 mph - N/A   Unknown
10:30 AM 44.6 °F 42.2 °F 42.8 °F 93% 30.04 in - Variable 4.6 mph - N/A   Clear
11:00 AM 44.6 °F - 44.6 °F 100% 30.04 in - ENE 1.2 mph - N/A   Clear
11:30 AM 48.2 °F - 44.6 °F 87% 30.04 in - NE 1.2 mph - N/A   Clear
12:00 PM 50.0 °F - 46.4 °F 87% 30.04 in - Variable 2.3 mph - N/A   Clear
12:30 PM 55.4 °F - 44.6 °F 67% 30.01 in - Variable 1.2 mph - N/A   Clear
1:00 PM 57.2 °F - 42.8 °F 59% 30.01 in - NNW 8.1 mph - N/A   Clear
1:30 PM 57.2 °F - 44.6 °F 63% 29.98 in - North 4.6 mph - N/A   Clear
2:00 PM 60.8 °F - 44.6 °F 55% 29.98 in - NE 3.5 mph - N/A   Clear
2:30 PM 62.6 °F - 42.8 °F 48% 29.95 in - South 6.9 mph - N/A   Clear
3:00 PM 62.6 °F - 42.8 °F 48% 29.95 in - South 10.4 mph - N/A   Clear
3:30 PM 62.6 °F - 41.0 °F 45% 29.92 in - South 3.5 mph - N/A   Clear
4:00 PM 60.8 °F - 41.0 °F 48% 29.92 in - Calm Calm - N/A   Clear
4:30 PM 60.8 °F - 44.6 °F 55% 29.92 in - SSE 5.8 mph - N/A   Clear
5:00 PM 60.8 °F - 39.2 °F 45% 29.92 in - SW 1.2 mph - N/A   Clear
5:30 PM 57.2 °F - 39.2 °F 51% 29.89 in - SSE 10.4 mph - N/A   Clear
6:00 PM 57.2 °F - 37.4 °F 48% 29.89 in - SE 6.9 mph - N/A   Clear
6:30 PM 57.2 °F - 35.6 °F 44% 29.89 in - SE 6.9 mph - N/A   Clear
7:00 PM 57.2 °F - 35.6 °F 44% 29.89 in - SSE 11.5 mph - N/A   Clear
7:30 PM 59.0 °F - 35.6 °F 42% 29.89 in - South 20.7 mph - N/A   Clear
8:00 PM 59.0 °F - 35.6 °F 42% 29.89 in - South 20.7 mph 33.4 mph N/A   Clear
8:30 PM 60.8 °F - 33.8 °F 36% 29.89 in - South 19.6 mph - N/A   Clear
9:00 PM 59.0 °F - 33.8 °F 39% 29.89 in - South 20.7 mph - N/A   Clear
9:30 PM 60.8 °F - 33.8 °F 36% 29.86 in - South 23.0 mph 34.5 mph N/A   Clear
10:00 PM 60.8 °F - 32.0 °F 34% 29.86 in - South 21.9 mph 34.5 mph N/A   Clear
10:30 PM 59.0 °F - 33.8 °F 39% 29.89 in - South 20.7 mph - N/A   Clear
11:00 PM 59.0 °F - 33.8 °F 39% 29.89 in - South 18.4 mph 29.9 mph N/A   Clear
11:30 PM 59.0 °F - 33.8 °F 39% 29.89 in - South 18.4 mph - N/A   Clear